Regional Weather Roundup
Issued by NWS

Home | Current Version | Previous Version | Text Only | Print | Product List | Glossary On
Versions: 1 2 3 4 5 6 7 8 9 10 11 12 13 14 15 16 17 18 19 20 21 22 23 24 25 26 27 28 29 30 31 32 33 34 35 36 37 38 39 40 41 42 43 44 45 46 47 48 49 50
215
ASUS45 KTFX 102310
RWRMT
MONTANA REGIONAL WEATHER ROUNDUP
NATIONAL WEATHER SERVICE GREAT FALLS MT
400 PM MST SAT DEC 10 2016

NOTE: "FAIR" INDICATES FEW OR NO CLOUDS BELOW 12000 FEET WITH NO
SIGNIFICANT WEATHER AND/OR OBSTRUCTIONS TO VISIBILITY.

MTZ001>007-043-110000-
WEST OF THE DIVIDE

CITY           SKY/WX    TMP DP  RH WIND       PRES   REMARKS
KALISPELL      CLOUDY    16   9  74 CALM      29.85R
MISSOULA       CLOUDY    26  19  74 CALM      29.84R
BUTTE          CLOUDY    30  10  43 W7        29.71R WCI  23
MULLAN PASS    CLOUDY    17  14  88 VRB5      29.72R FOG
ANACONDA         N/A     30  10  43 W15G21    29.72R WCI  19
DEER LODGE       N/A     28  18  64 NW12G20   29.76R WCI  18
EUREKA           N/A     14   3  62 CALM      29.90R
HAMILTON         N/A     25  16  68 N3        29.80S
LIBBY            N/A     19  12  73 CALM      29.88R
PLAINS           N/A     21  11  65 CALM      29.89R
RONAN            N/A     15   7  71 CALM      29.89R
$$

MTZ008-052>055-110000-
SOUTHWEST MONTANA

CITY           SKY/WX    TMP DP  RH WIND       PRES   REMARKS
BOZEMAN        CLOUDY    20  17  88 S7        29.73R FOG     WCI  11
DILLON         CLOUDY    33  18  53 MISG      29.72R
W YELLOWSTONE  CLOUDY    28  25  86 SW13G21   29.67S WCI  18
ENNIS          PTCLDY    32  27  80 CALM      29.76S
THREE FORKS      N/A     22 -11  23 CALM      29.74R
TWIN BRIDGES     N/A     36  16  44 SW10      29.75R WCI  28
$$

MTZ009-010-012-014-046-048-049-054-110000-
EAST SLOPES AND CENTRAL MONTANA

CITY           SKY/WX    TMP DP  RH WIND       PRES   REMARKS
CUT BANK       CLEAR      3  -4  72 NW3       29.72R
GREAT FALLS    CLEAR      7   1  76 S7        29.73R WCI  -5
MALMSTROM AFB  PTCLDY     7   3  85 S6        29.75R WCI  -3
HELENA         CLEAR     15   7  70 SE3       29.74R
AUGUSTA          N/A     11   7  83 W5        29.65R
BOWMANS CRNR     N/A      7   2  80 SE5       29.67R
CHOTEAU          N/A      9   1  72 MISG      29.73R
CONRAD           N/A      8   2  76 CALM      29.78R
FAIRFIELD        N/A      7   0  74 E7        29.70R WCI  -5
POWER            N/A      7   1  78 N2        29.71R
RAYNESFORD       N/A      3  -2  79 SW5       29.71R
ULM              N/A      3  -3  77 N5G13     29.73R
$$

MTZ011-013-016-021-045-047-050-051-110000-
NORTH CENTRAL MONTANA

CITY           SKY/WX    TMP DP  RH WIND       PRES   REMARKS
HAVRE          CLOUDY     6   1  80 N5        29.82R
LEWISTOWN      CLOUDY     9   5  84 SW12      29.67R WCI  -6
N BAR RANCH      N/A     16  12  86 SE5       29.63R
CHINOOK          N/A      5   0  78 E7        29.84R WCI  -7
DENTON         MOCLDY     6   3  86 N3G16     29.69R
FORT BENTON      N/A      9   1  72 N7        29.82R WCI  -3
GEYSER           N/A      7   3  84 SE2       29.67R
GRASS RANGE    MOCLDY    10   7  85 N6        29.64R WCI   1
JUDITH GAP     SNOWSHWR   8   5  88 N13       29.64R WCI  -8
ROY            FLURRIES   6   4  91 MISG      29.68R
STANFORD         N/A      3   2  95 N1        29.65R
WINIFRED       MOCLDY     6   4  89 MISG      29.70R
$$

MTZ017>020-022>027-061-062-110000-
NORTHEAST MONTANA

CITY           SKY/WX    TMP DP  RH WIND       PRES   REMARKS
GLASGOW        LGT SNOW   2  -3  80 E16       29.83S VSB 1   WCI -18
JORDAN           N/A     10   6  84 SE10      29.74F WCI  -4
SIDNEY         FLURRIES   3  -4  72 E17       29.93S WCI -17
WOLF POINT     SNOW       5  -1  76 E15       29.88F VSB 1/2 WCI -13
PLENTYWOOD       N/A      0  -4  85 E16       29.92F WCI -21
SCOBEY           N/A      0 -12  56 E12       29.86F WCI -17
$$

MTZ028>42-056>058-110000-
SOUTHCENTRAL AND SOUTHEAST MONTANA

CITY           SKY/WX    TMP DP  RH WIND       PRES   REMARKS
BAKER          CLOUDY     2  -4  76 SE26      29.76S WCI -22
BILLINGS       CLOUDY    14  11  87 SE6       29.67S WCI   5
LIVINGSTON     LGT SNOW  31  28  89 CALM      29.67R VSB 1
MILES CITY     LGT SNOW  11   4  73 E7        29.75S WCI   0
BIG TIMBER     MOCLDY    21  19  93 SW7       29.68R WCI  13
EKALAKA          N/A      5  -3  69 E13       29.67F WCI -12
FORSYTH          N/A     12   9  85 E3        29.74R
HARLOWTON      LGT SNOW  31  24  73 W38G47    29.62R WCI  15
LAUREL           N/A     16   2  54 CALM      29.69R
ROUNDUP          N/A     17   9  71 S7        29.59F WCI   8
$$

REGIONAL REPORTS...DAKOTAS

CITY           SKY/WX    TMP DP  RH WIND       PRES   REMARKS
WILLISTON      FLURRIES   2  -5  72 SE13      29.97F WCI -15
MINOT          CLOUDY    -7 -12  79 E10       30.10F WCI -25
DICKINSON      CLOUDY    -3  -8  79 E14       29.86F WCI -22
BEACH          CLOUDY     1   0  92 SE21      29.83F WCI -20
CROSBY         CLOUDY    -2  -6  84 E16       30.04S WCI -23
TIOGA          MOCLDY    -2  -4  92 SE17      29.98F FOG     WCI -24
WATFORD CITY   CLOUDY     0  -8  71 SE15      29.95F WCI -20
BISMARCK       CLOUDY    -4  -8  83 E13       30.08S WCI -23
GRAND FORKS    CLOUDY    -3  -9  75 E7        30.30F WCI -16
FARGO          CLOUDY     1  -6  72 NE8       30.26F WCI -13
BUFFALO SD       N/A      2  -4  76 E16       29.71S WCI -18
RAPID CITY     CLOUDY     6   1  80 E9        29.75F WCI  -8
$$

REGIONAL REPORTS...WYOMING/IDAHO/WASHINGTON

CITY           SKY/WX    TMP DP  RH WIND       PRES   REMARKS
GILLETTE       CLOUDY    20  16  84 SE7       29.56S WCI  11
SHERIDAN       CLOUDY    16   9  74 NW7       29.61R WCI   6
BUFFALO WY     CLOUDY    30  20  66 MISG      29.54R
CODY           CLOUDY    19  12  74 NE18      29.60R WCI   4
YELLOWSTONE LA   N/A     27  22  81 W8        29.68R WCI  19
IDAHO FALLS    CLOUDY    35  33  92 SW22G31   29.76R WCI  23
SALMON         CLOUDY    21  18  86 CALM      29.81R
BOISE          FOG       33  33 100 W5        29.87R VSB<1/4
SPOKANE        CLOUDY    20  18  92 SE6       29.91F WCI  12
$$

REGIONAL REPORTS...ALBERTA

CITY           SKY/WX    TMP DP  RH WIND       PRES   REMARKS
EDMONTON       CLOUDY    -6 -13  71 NE5       29.95F
CALGARY        CRYSTALS  -4  -9  77 E7        29.76R WCI -18
LETHBRIDGE     MOCLDY    -2  -8  78 NW7       29.82R WCI -16
MEDICINE HAT   LGT SNOW   3   0  85 NW8       29.87S VSB 5/8 WCI -10
WATERTON GATE    N/A     -6 -11  77 NE9         N/A  WCI -22
CARDSTON         N/A     -2  -9  71 N2          N/A
MILK RIVER       N/A      3  -2  78 N6          N/A  WCI  -8
ONEFOUR          N/A      3   0  85 N6          N/A  WCI  -8
$$

REGIONAL REPORTS...SASKATCHEWAN

CITY           SKY/WX    TMP DP  RH WIND       PRES   REMARKS
SWIFT CURRENT  CLOUDY     1  -2  85 E17       29.82R WCI -19
REGINA         PTCLDY    -8 -13  77 E13       30.04S WCI -28
SASKATOON      PTCLDY     0  -8  71 SE10      30.07F WCI -17
CYPRESS HILLS    N/A      0  -4  85 N1          N/A
VAL MARIE        N/A      1  -2  85 SE7         N/A  WCI -11
ROCKGLEN         N/A     -2  -4  92 E14         N/A  WCI -21
$$




USA.gov is the U.S. government's official web portal to all federal, state and local government web resources and services.